{"data":{"norad_id":52304,"epoch":"2026-09-19T16:20:29.869728Z","epoch_age_seconds":130342,"freshness":"FRESH","line1":"1 52304U 22041AV  26262.68090127 -.00000995  00000+0 -18333-4 0  9990","line2":"2 52304  53.1604 285.8936 0001002  85.0318 275.0799 15.34381001244098","mean_motion":15.34381001,"eccentricity":0.0001002,"inclination_deg":53.1604,"raan_deg":285.8936,"arg_perigee_deg":85.0318,"mean_anomaly_deg":275.0799,"bstar":-1.8333e-5,"rev_number":24409,"period_min":93.848920122285,"perigee_km":462.07425197131,"apogee_km":463.44516767196,"semimajor_km":6840.8967098216,"source":"CELESTRAK","updated_at":"2026-09-20T09:00:40.018936Z"}}